Year,Month,Day,Hour,Minute,Value (Times are PST for temperature in C)
2008,07,26,00,00,12.30
2008,07,26,00,01,12.30
2008,07,26,00,02,12.30
2008,07,26,00,03,12.30
2008,07,26,00,04,12.30
2008,07,26,00,05,12.30
2008,07,26,00,06,12.30
2008,07,26,00,07,12.30
2008,07,26,00,08,12.30
2008,07,26,00,09,12.30
2008,07,26,00,10,12.20
2008,07,26,00,11,12.20
2008,07,26,00,12,12.20
2008,07,26,00,13,12.20
2008,07,26,00,14,12.20
2008,07,26,00,15,12.20
2008,07,26,00,16,12.20
2008,07,26,00,17,12.20
2008,07,26,00,18,12.20
2008,07,26,00,19,12.20
2008,07,26,00,20,12.20
2008,07,26,00,21,12.20
2008,07,26,00,22,12.20
2008,07,26,00,23,12.20
2008,07,26,00,24,12.20
2008,07,26,00,25,12.20
2008,07,26,00,26,12.20
2008,07,26,00,27,12.20
2008,07,26,00,28,12.20
2008,07,26,00,29,12.20
2008,07,26,00,30,12.10
2008,07,26,00,31,12.10
2008,07,26,00,32,12.10
2008,07,26,00,33,12.10
2008,07,26,00,34,12.10
2008,07,26,00,35,12.00
2008,07,26,00,36,12.00
2008,07,26,00,37,12.00
2008,07,26,00,38,12.00
2008,07,26,00,39,12.00
2008,07,26,00,40,12.00
2008,07,26,00,41,12.00
2008,07,26,00,42,12.00
2008,07,26,00,43,12.00
2008,07,26,00,44,12.00
2008,07,26,00,45,11.90
2008,07,26,00,46,11.90
2008,07,26,00,47,11.90
2008,07,26,00,48,11.90
2008,07,26,00,49,11.90
2008,07,26,00,50,11.90
2008,07,26,00,51,11.90
2008,07,26,00,52,11.90
2008,07,26,00,53,11.90
2008,07,26,00,54,11.90
2008,07,26,00,55,11.90
2008,07,26,00,56,11.90
2008,07,26,00,57,11.90
2008,07,26,00,58,11.90
2008,07,26,00,59,11.90
2008,07,26,01,00,11.90
2008,07,26,01,01,11.90
2008,07,26,01,02,11.90
2008,07,26,01,03,11.90
2008,07,26,01,04,11.90
2008,07,26,01,05,11.90
2008,07,26,01,06,11.90
2008,07,26,01,07,11.90
2008,07,26,01,08,11.90
2008,07,26,01,09,11.90
2008,07,26,01,10,11.90
2008,07,26,01,11,11.90
2008,07,26,01,12,11.90
2008,07,26,01,13,11.90
2008,07,26,01,14,11.90
2008,07,26,01,15,11.90
2008,07,26,01,16,11.90
2008,07,26,01,17,11.90
2008,07,26,01,18,11.90
2008,07,26,01,19,11.90
2008,07,26,01,20,11.90
2008,07,26,01,21,12.00
2008,07,26,01,22,12.00
2008,07,26,01,23,12.00
2008,07,26,01,24,12.00
2008,07,26,01,25,12.00
2008,07,26,01,26,12.00
2008,07,26,01,27,12.00
2008,07,26,01,28,12.00
2008,07,26,01,29,12.00
2008,07,26,01,30,12.00
2008,07,26,01,31,12.00
2008,07,26,01,32,12.00
2008,07,26,01,33,12.00
2008,07,26,01,34,12.00
2008,07,26,01,35,12.00
2008,07,26,01,36,12.00
2008,07,26,01,37,12.10
2008,07,26,01,38,12.10
2008,07,26,01,39,12.10
2008,07,26,01,40,12.10
2008,07,26,01,41,12.10
2008,07,26,01,42,12.10
2008,07,26,01,43,12.10
2008,07,26,01,44,12.10
2008,07,26,01,45,12.10
2008,07,26,01,46,12.10
2008,07,26,01,47,12.10
2008,07,26,01,48,12.10
2008,07,26,01,49,12.10
2008,07,26,01,50,12.10
2008,07,26,01,51,12.10
2008,07,26,01,52,12.00
2008,07,26,01,53,12.00
2008,07,26,01,54,12.00
2008,07,26,01,55,12.00
2008,07,26,01,56,12.00
2008,07,26,01,57,12.00
2008,07,26,01,58,12.00
2008,07,26,01,59,12.00
2008,07,26,02,00,12.00
2008,07,26,02,01,12.00
2008,07,26,02,02,12.00
2008,07,26,02,03,12.00
2008,07,26,02,04,12.00
2008,07,26,02,05,12.00
2008,07,26,02,06,12.00
2008,07,26,02,07,12.00
2008,07,26,02,08,12.00
2008,07,26,02,09,12.00
2008,07,26,02,10,11.90
2008,07,26,02,11,11.90
2008,07,26,02,12,11.90
2008,07,26,02,13,11.90
2008,07,26,02,14,11.90
2008,07,26,02,15,11.90
2008,07,26,02,16,11.90
2008,07,26,02,17,11.90
2008,07,26,02,18,11.90
2008,07,26,02,19,11.90
2008,07,26,02,20,11.90
2008,07,26,02,21,11.90
2008,07,26,02,22,11.90
2008,07,26,02,23,11.90
2008,07,26,02,24,11.90
2008,07,26,02,25,11.90
2008,07,26,02,26,11.90
2008,07,26,02,27,11.90
2008,07,26,02,28,11.90
2008,07,26,02,29,11.90
2008,07,26,02,30,11.90
2008,07,26,02,31,11.90
2008,07,26,02,32,11.90
2008,07,26,02,33,11.90
2008,07,26,02,34,11.90
2008,07,26,02,35,11.90
2008,07,26,02,36,11.90
2008,07,26,02,37,11.90
2008,07,26,02,38,11.90
2008,07,26,02,39,11.90
2008,07,26,02,40,11.90
2008,07,26,02,41,11.90
2008,07,26,02,42,11.90
2008,07,26,02,43,11.90
2008,07,26,02,44,11.90
2008,07,26,02,45,11.90
2008,07,26,02,46,11.90
2008,07,26,02,47,11.90
2008,07,26,02,48,12.00
2008,07,26,02,49,12.00
2008,07,26,02,50,12.00
2008,07,26,02,51,12.00
2008,07,26,02,52,12.00
2008,07,26,02,53,12.10
2008,07,26,02,54,12.10
2008,07,26,02,55,12.10
2008,07,26,02,56,12.10
2008,07,26,02,57,12.20
2008,07,26,02,58,12.20
2008,07,26,02,59,12.20
2008,07,26,03,00,12.20
2008,07,26,03,01,12.20
2008,07,26,03,02,12.20
2008,07,26,03,03,12.20
2008,07,26,03,04,12.10
2008,07,26,03,05,12.10
2008,07,26,03,06,12.10
2008,07,26,03,07,12.10
2008,07,26,03,08,12.10
2008,07,26,03,09,12.10
2008,07,26,03,10,12.10
2008,07,26,03,11,12.10
2008,07,26,03,12,12.10
2008,07,26,03,13,12.10
2008,07,26,03,14,12.10
2008,07,26,03,15,12.10
2008,07,26,03,16,12.10
2008,07,26,03,17,12.10
2008,07,26,03,18,12.10
2008,07,26,03,19,12.10
2008,07,26,03,20,12.10
2008,07,26,03,21,12.10
2008,07,26,03,22,12.20
2008,07,26,03,23,12.20
2008,07,26,03,24,12.20
2008,07,26,03,25,12.20
2008,07,26,03,26,12.20
2008,07,26,03,27,12.20
2008,07,26,03,28,12.20
2008,07,26,03,29,12.20
2008,07,26,03,30,12.20
2008,07,26,03,31,12.20
2008,07,26,03,32,12.20
2008,07,26,03,33,12.20
2008,07,26,03,34,12.20
2008,07,26,03,35,12.20
2008,07,26,03,36,12.20
2008,07,26,03,37,12.20
2008,07,26,03,38,12.20
2008,07,26,03,39,12.20
2008,07,26,03,40,12.10
2008,07,26,03,41,12.10
2008,07,26,03,42,12.10
2008,07,26,03,43,12.10
2008,07,26,03,44,12.10
2008,07,26,03,45,12.10
2008,07,26,03,46,12.10
2008,07,26,03,47,12.10
2008,07,26,03,48,12.10
2008,07,26,03,49,12.10
2008,07,26,03,50,12.10
2008,07,26,03,51,12.10
2008,07,26,03,52,12.00
2008,07,26,03,53,12.00
2008,07,26,03,54,12.00
2008,07,26,03,55,12.00
2008,07,26,03,56,12.00
2008,07,26,03,57,12.00
2008,07,26,03,58,12.00
2008,07,26,03,59,12.00
2008,07,26,04,00,12.00
2008,07,26,04,01,12.00
2008,07,26,04,02,12.00
2008,07,26,04,03,12.00
2008,07,26,04,04,12.00
2008,07,26,04,05,12.00
2008,07,26,04,06,11.90
2008,07,26,04,07,11.90
2008,07,26,04,08,11.90
2008,07,26,04,09,11.90
2008,07,26,04,10,11.90
2008,07,26,04,11,11.90
2008,07,26,04,12,11.80
2008,07,26,04,13,11.80
2008,07,26,04,14,11.80
2008,07,26,04,15,11.80
2008,07,26,04,16,11.80
2008,07,26,04,17,11.80
2008,07,26,04,18,11.80
2008,07,26,04,19,11.80
2008,07,26,04,20,11.80
2008,07,26,04,21,11.80
2008,07,26,04,22,11.80
2008,07,26,04,23,11.70
2008,07,26,04,24,11.70
2008,07,26,04,25,11.70
2008,07,26,04,26,11.70
2008,07,26,04,27,11.70
2008,07,26,04,28,11.70
2008,07,26,04,29,11.70
2008,07,26,04,30,11.70
2008,07,26,04,31,11.70
2008,07,26,04,32,11.70
2008,07,26,04,33,11.70
2008,07,26,04,34,11.70
2008,07,26,04,35,11.70
2008,07,26,04,36,11.70
2008,07,26,04,37,11.70
2008,07,26,04,38,11.70
2008,07,26,04,39,11.70
2008,07,26,04,40,11.70
2008,07,26,04,41,11.70
2008,07,26,04,42,11.70
2008,07,26,04,43,11.70
2008,07,26,04,44,11.70
2008,07,26,04,45,11.70
2008,07,26,04,46,11.70
2008,07,26,04,47,11.70
2008,07,26,04,48,11.60
2008,07,26,04,49,11.60
2008,07,26,04,50,11.60
2008,07,26,04,51,11.60
2008,07,26,04,52,11.60
2008,07,26,04,53,11.60
2008,07,26,04,54,11.60
2008,07,26,04,55,11.60
2008,07,26,04,56,11.60
2008,07,26,04,57,11.60
2008,07,26,04,58,11.60
2008,07,26,04,59,11.60
2008,07,26,05,00,11.60
2008,07,26,05,01,11.60
2008,07,26,05,02,11.60
2008,07,26,05,03,11.60
2008,07,26,05,04,11.60
2008,07,26,05,05,11.60
2008,07,26,05,06,11.60
2008,07,26,05,07,11.60
2008,07,26,05,08,11.60
2008,07,26,05,09,11.60
2008,07,26,05,10,11.60
2008,07,26,05,11,11.60
2008,07,26,05,12,11.50
2008,07,26,05,13,11.40
2008,07,26,05,14,11.40
2008,07,26,05,15,11.40
2008,07,26,05,16,11.40
2008,07,26,05,17,11.40
2008,07,26,05,18,11.40
2008,07,26,05,19,11.40
2008,07,26,05,20,11.40
2008,07,26,05,21,11.40
2008,07,26,05,22,11.40
2008,07,26,05,23,11.40
2008,07,26,05,24,11.40
2008,07,26,05,25,11.30
2008,07,26,05,26,11.30
2008,07,26,05,27,11.30
2008,07,26,05,28,11.30
2008,07,26,05,29,11.30
2008,07,26,05,30,11.30
2008,07,26,05,31,11.30
2008,07,26,05,32,11.30
2008,07,26,05,33,11.30
2008,07,26,05,34,11.20
2008,07,26,05,35,11.20
2008,07,26,05,36,11.20
2008,07,26,05,37,11.20
2008,07,26,05,38,11.20
2008,07,26,05,39,11.20
2008,07,26,05,40,11.20
2008,07,26,05,41,11.20
2008,07,26,05,42,11.20
2008,07,26,05,43,11.20
2008,07,26,05,44,11.20
2008,07,26,05,45,11.20
2008,07,26,05,46,11.20
2008,07,26,05,47,11.20
2008,07,26,05,48,11.20
2008,07,26,05,49,11.20
2008,07,26,05,50,11.20
2008,07,26,05,51,11.30
2008,07,26,05,52,11.30
2008,07,26,05,53,11.30
2008,07,26,05,54,11.30
2008,07,26,05,55,11.30
2008,07,26,05,56,11.30
2008,07,26,05,57,11.30
2008,07,26,05,58,11.30
2008,07,26,05,59,11.30
2008,07,26,06,00,11.30
2008,07,26,06,01,11.30
2008,07,26,06,02,11.30
2008,07,26,06,03,11.30
2008,07,26,06,04,11.40
2008,07,26,06,05,11.40
2008,07,26,06,06,11.40
2008,07,26,06,07,11.40
2008,07,26,06,08,11.40
2008,07,26,06,09,11.40
2008,07,26,06,10,11.40
2008,07,26,06,11,11.40
2008,07,26,06,12,11.40
2008,07,26,06,13,11.40
2008,07,26,06,14,11.40
2008,07,26,06,15,11.40
2008,07,26,06,16,11.40
2008,07,26,06,17,11.40
2008,07,26,06,18,11.40
2008,07,26,06,19,11.40
2008,07,26,06,20,11.40
2008,07,26,06,21,11.40
2008,07,26,06,22,11.40
2008,07,26,06,23,11.40
2008,07,26,06,24,11.40
2008,07,26,06,25,11.40
2008,07,26,06,26,11.40
2008,07,26,06,27,11.40
2008,07,26,06,28,11.40
2008,07,26,06,29,11.40
2008,07,26,06,30,11.40
2008,07,26,06,31,11.40
2008,07,26,06,32,11.40
2008,07,26,06,33,11.40
2008,07,26,06,34,11.40
2008,07,26,06,35,11.50
2008,07,26,06,36,11.60
2008,07,26,06,37,11.60
2008,07,26,06,38,11.60
2008,07,26,06,39,11.60
2008,07,26,06,40,11.60
2008,07,26,06,41,11.60
2008,07,26,06,42,11.60
2008,07,26,06,43,11.60
2008,07,26,06,44,11.60
2008,07,26,06,45,11.60
2008,07,26,06,46,11.60
2008,07,26,06,47,11.60
2008,07,26,06,48,11.60
2008,07,26,06,49,11.60
2008,07,26,06,50,11.60
2008,07,26,06,51,11.70
2008,07,26,06,52,11.70
2008,07,26,06,53,11.70
2008,07,26,06,54,11.70
2008,07,26,06,55,11.70
2008,07,26,06,56,11.70
2008,07,26,06,57,11.80
2008,07,26,06,58,11.80
2008,07,26,06,59,11.80
2008,07,26,07,00,11.80
2008,07,26,07,01,11.90
2008,07,26,07,02,11.90
2008,07,26,07,03,11.90
2008,07,26,07,04,11.90
2008,07,26,07,05,11.90
2008,07,26,07,06,11.90
2008,07,26,07,07,12.00
2008,07,26,07,08,12.00
2008,07,26,07,09,12.00
2008,07,26,07,10,12.00
2008,07,26,07,11,12.10
2008,07,26,07,12,12.10
2008,07,26,07,13,12.10
2008,07,26,07,14,12.10
2008,07,26,07,15,12.10
2008,07,26,07,16,12.10
2008,07,26,07,17,12.20
2008,07,26,07,18,12.20
2008,07,26,07,19,12.30
2008,07,26,07,20,12.30
2008,07,26,07,21,12.30
2008,07,26,07,22,12.30
2008,07,26,07,23,12.30
2008,07,26,07,24,12.30
2008,07,26,07,25,12.30
2008,07,26,07,26,12.30
2008,07,26,07,27,12.30
2008,07,26,07,28,12.30
2008,07,26,07,29,12.30
2008,07,26,07,30,12.30
2008,07,26,07,31,12.30
2008,07,26,07,32,12.30
2008,07,26,07,33,12.30
2008,07,26,07,34,12.30
2008,07,26,07,35,12.30
2008,07,26,07,36,12.30
2008,07,26,07,37,12.30
2008,07,26,07,38,12.30
2008,07,26,07,39,12.30
2008,07,26,07,40,12.30
2008,07,26,07,41,12.30
2008,07,26,07,42,12.30
2008,07,26,07,43,12.30
2008,07,26,07,44,12.30
2008,07,26,07,45,12.30
2008,07,26,07,46,12.30
2008,07,26,07,47,12.30
2008,07,26,07,48,12.30
2008,07,26,07,49,12.30
2008,07,26,07,50,12.30
2008,07,26,07,51,12.30
2008,07,26,07,52,12.30
2008,07,26,07,53,12.30
2008,07,26,07,54,12.30
2008,07,26,07,55,12.30
2008,07,26,07,56,12.30
2008,07,26,07,57,12.30
2008,07,26,07,58,12.30
2008,07,26,07,59,12.30
2008,07,26,08,00,12.30
2008,07,26,08,01,12.30
2008,07,26,08,02,12.30
2008,07,26,08,03,12.30
2008,07,26,08,04,12.30
2008,07,26,08,05,12.30
2008,07,26,08,06,12.30
2008,07,26,08,07,12.30
2008,07,26,08,08,12.30
2008,07,26,08,09,12.30
2008,07,26,08,10,12.30
2008,07,26,08,11,12.30
2008,07,26,08,12,12.30
2008,07,26,08,13,12.30
2008,07,26,08,14,12.30
2008,07,26,08,15,12.30
2008,07,26,08,16,12.30
2008,07,26,08,17,12.30
2008,07,26,08,18,12.30
2008,07,26,08,19,12.20
2008,07,26,08,20,12.20
2008,07,26,08,21,12.20
2008,07,26,08,22,12.30
2008,07,26,08,23,12.30
2008,07,26,08,24,12.30
2008,07,26,08,25,12.30
2008,07,26,08,26,12.30
2008,07,26,08,27,12.30
2008,07,26,08,28,12.30
2008,07,26,08,29,12.30
2008,07,26,08,30,12.30
2008,07,26,08,31,12.30
2008,07,26,08,32,12.30
2008,07,26,08,33,12.30
2008,07,26,08,34,12.30
2008,07,26,08,35,12.30
2008,07,26,08,36,12.30
2008,07,26,08,37,12.30
2008,07,26,08,38,12.30
2008,07,26,08,39,12.30
2008,07,26,08,40,12.30
2008,07,26,08,41,12.30
2008,07,26,08,42,12.30
2008,07,26,08,43,12.30
2008,07,26,08,44,12.30
2008,07,26,08,45,12.30
2008,07,26,08,46,12.30
2008,07,26,08,47,12.30
2008,07,26,08,48,12.30
2008,07,26,08,49,12.30
2008,07,26,08,50,12.30
2008,07,26,08,51,12.30
2008,07,26,08,52,12.30
2008,07,26,08,53,12.20
2008,07,26,08,54,12.20
2008,07,26,08,55,12.20
2008,07,26,08,56,12.20
2008,07,26,08,57,12.20
2008,07,26,08,58,12.20
2008,07,26,08,59,12.20
2008,07,26,09,00,12.20
2008,07,26,09,01,12.30
2008,07,26,09,02,12.30
2008,07,26,09,03,12.30
2008,07,26,09,04,12.30
2008,07,26,09,05,12.30
2008,07,26,09,06,12.30
2008,07,26,09,07,12.40
2008,07,26,09,08,12.40
2008,07,26,09,09,12.50
2008,07,26,09,10,12.50
2008,07,26,09,11,12.40
2008,07,26,09,12,12.40
2008,07,26,09,13,12.40
2008,07,26,09,14,12.40
2008,07,26,09,15,12.40
2008,07,26,09,16,12.50
2008,07,26,09,17,12.50
2008,07,26,09,18,12.40
2008,07,26,09,19,12.50
2008,07,26,09,20,12.50
2008,07,26,09,21,12.50
2008,07,26,09,22,12.50
2008,07,26,09,23,12.50
2008,07,26,09,24,12.50
2008,07,26,09,25,12.60
2008,07,26,09,26,12.60
2008,07,26,09,27,12.70
2008,07,26,09,28,12.70
2008,07,26,09,29,12.70
2008,07,26,09,30,12.80
2008,07,26,09,31,12.80
2008,07,26,09,32,12.80
2008,07,26,09,33,12.90
2008,07,26,09,34,12.90
2008,07,26,09,35,12.90
2008,07,26,09,36,12.90
2008,07,26,09,37,12.80
2008,07,26,09,38,12.80
2008,07,26,09,39,12.70
2008,07,26,09,40,12.70
2008,07,26,09,41,12.60
2008,07,26,09,42,12.70
2008,07,26,09,43,12.70
2008,07,26,09,44,12.80
2008,07,26,09,45,12.80
2008,07,26,09,46,12.80
2008,07,26,09,47,12.80
2008,07,26,09,48,12.80
2008,07,26,09,49,12.90
2008,07,26,09,50,12.90
2008,07,26,09,51,13.00
2008,07,26,09,52,13.00
2008,07,26,09,53,13.10
2008,07,26,09,54,13.20
2008,07,26,09,55,13.20
2008,07,26,09,56,13.20
2008,07,26,09,57,13.20
2008,07,26,09,58,13.20
2008,07,26,09,59,13.20
2008,07,26,10,00,13.20
2008,07,26,10,01,13.30
2008,07,26,10,02,13.30
2008,07,26,10,03,13.30
2008,07,26,10,04,13.40
2008,07,26,10,05,13.40
2008,07,26,10,06,13.50
2008,07,26,10,07,13.60
2008,07,26,10,08,13.60
2008,07,26,10,09,13.70
2008,07,26,10,10,13.70
2008,07,26,10,11,13.80
2008,07,26,10,12,13.80
2008,07,26,10,13,13.90
2008,07,26,10,14,14.00
2008,07,26,10,15,14.00
2008,07,26,10,16,14.00
2008,07,26,10,17,14.10
2008,07,26,10,18,14.20
2008,07,26,10,19,14.20
2008,07,26,10,20,14.20
2008,07,26,10,21,14.30
2008,07,26,10,22,14.40
2008,07,26,10,23,14.50
2008,07,26,10,24,14.50
2008,07,26,10,25,14.40
2008,07,26,10,26,14.20
2008,07,26,10,27,14.10
2008,07,26,10,28,14.00
2008,07,26,10,29,14.00
2008,07,26,10,30,13.90
2008,07,26,10,31,13.90
2008,07,26,10,32,13.80
2008,07,26,10,33,13.70
2008,07,26,10,34,13.50
2008,07,26,10,35,13.40
2008,07,26,10,36,13.30
2008,07,26,10,37,13.30
2008,07,26,10,38,13.20
2008,07,26,10,39,13.10
2008,07,26,10,40,13.00
2008,07,26,10,41,12.90
2008,07,26,10,42,12.90
2008,07,26,10,43,12.80
2008,07,26,10,44,12.80
2008,07,26,10,45,12.80
2008,07,26,10,46,12.80
2008,07,26,10,47,12.80
2008,07,26,10,48,12.80
2008,07,26,10,49,12.80
2008,07,26,10,50,12.70
2008,07,26,10,51,12.60
2008,07,26,10,52,12.60
2008,07,26,10,53,12.50
2008,07,26,10,54,12.40
2008,07,26,10,55,12.40
2008,07,26,10,56,12.50
2008,07,26,10,57,12.50
2008,07,26,10,58,12.50
2008,07,26,10,59,12.50
2008,07,26,11,00,12.50
2008,07,26,11,01,12.50
2008,07,26,11,02,12.50
2008,07,26,11,03,12.50
2008,07,26,11,04,12.50
2008,07,26,11,05,12.60
2008,07,26,11,06,12.70
2008,07,26,11,07,12.80
2008,07,26,11,08,12.90
2008,07,26,11,09,12.90
2008,07,26,11,10,12.90
2008,07,26,11,11,13.00
2008,07,26,11,12,13.00
2008,07,26,11,13,13.00
2008,07,26,11,14,13.00
2008,07,26,11,15,13.00
2008,07,26,11,16,13.00
2008,07,26,11,17,12.90
2008,07,26,11,18,12.90
2008,07,26,11,19,12.90
2008,07,26,11,20,12.90
2008,07,26,11,21,13.00
2008,07,26,11,22,12.90
2008,07,26,11,23,12.90
2008,07,26,11,24,12.80
2008,07,26,11,25,12.70
2008,07,26,11,26,12.60
2008,07,26,11,27,12.50
2008,07,26,11,28,12.50
2008,07,26,11,29,12.50
2008,07,26,11,30,12.50
2008,07,26,11,31,12.60
2008,07,26,11,32,12.70
2008,07,26,11,33,12.80
2008,07,26,11,34,12.90
2008,07,26,11,35,13.00
2008,07,26,11,36,13.10
2008,07,26,11,37,13.10
2008,07,26,11,38,13.20
2008,07,26,11,39,13.20
2008,07,26,11,40,13.20
2008,07,26,11,41,13.20
2008,07,26,11,42,13.30
2008,07,26,11,43,13.30
2008,07,26,11,44,13.20
2008,07,26,11,45,13.20
2008,07,26,11,46,13.20
2008,07,26,11,47,13.30
2008,07,26,11,48,13.40
2008,07,26,11,49,13.60
2008,07,26,11,50,13.70
2008,07,26,11,51,13.70
2008,07,26,11,52,13.80
2008,07,26,11,53,13.90
2008,07,26,11,54,14.00
2008,07,26,11,55,13.90
2008,07,26,11,56,13.80
2008,07,26,11,57,13.80
2008,07,26,11,58,13.70
2008,07,26,11,59,13.70
2008,07,26,12,00,13.60
2008,07,26,12,01,13.70
2008,07,26,12,02,13.70
2008,07,26,12,03,13.60
2008,07,26,12,04,13.60
2008,07,26,12,05,13.70
2008,07,26,12,06,13.70
2008,07,26,12,07,13.80
2008,07,26,12,08,13.90
2008,07,26,12,09,14.00
2008,07,26,12,10,14.00
2008,07,26,12,11,14.00
2008,07,26,12,12,14.00
2008,07,26,12,13,14.00
2008,07,26,12,14,14.00
2008,07,26,12,15,14.00
2008,07,26,12,16,14.00
2008,07,26,12,17,14.10
2008,07,26,12,18,14.10
2008,07,26,12,19,14.10
2008,07,26,12,20,14.20
2008,07,26,12,21,14.30
2008,07,26,12,22,14.40
2008,07,26,12,23,14.50
2008,07,26,12,24,14.60
2008,07,26,12,25,14.60
2008,07,26,12,26,14.60
2008,07,26,12,27,14.50
2008,07,26,12,28,14.50
2008,07,26,12,29,14.60
2008,07,26,12,30,14.70
2008,07,26,12,31,14.70
2008,07,26,12,32,14.70
2008,07,26,12,33,14.80
2008,07,26,12,34,14.80
2008,07,26,12,35,14.80
2008,07,26,12,36,14.50
2008,07,26,12,37,14.40
2008,07,26,12,38,14.40
2008,07,26,12,39,14.30
2008,07,26,12,40,14.20
2008,07,26,12,41,14.20
2008,07,26,12,42,14.30
2008,07,26,12,43,14.50
2008,07,26,12,44,14.60
2008,07,26,12,45,14.70
2008,07,26,12,46,14.80
2008,07,26,12,47,14.80
2008,07,26,12,48,14.80
2008,07,26,12,49,14.80
2008,07,26,12,50,15.00
2008,07,26,12,51,15.00
2008,07,26,12,52,15.00
2008,07,26,12,53,15.10
2008,07,26,12,54,15.20
2008,07,26,12,55,15.30
2008,07,26,12,56,15.30
2008,07,26,12,57,15.40
2008,07,26,12,58,15.60
2008,07,26,12,59,15.60
2008,07,26,13,00,15.70
2008,07,26,13,01,15.80
2008,07,26,13,02,15.80
2008,07,26,13,03,15.80
2008,07,26,13,04,16.00
2008,07,26,13,05,16.10
2008,07,26,13,06,16.10
2008,07,26,13,07,16.10
2008,07,26,13,08,16.20
2008,07,26,13,09,16.30
2008,07,26,13,10,16.50
2008,07,26,13,11,16.60
2008,07,26,13,12,16.70
2008,07,26,13,13,16.90
2008,07,26,13,14,17.00
2008,07,26,13,15,17.00
2008,07,26,13,16,17.00
2008,07,26,13,17,17.10
2008,07,26,13,18,17.10
2008,07,26,13,19,17.00
2008,07,26,13,20,17.00
2008,07,26,13,21,16.90
2008,07,26,13,22,16.80
2008,07,26,13,23,16.80
2008,07,26,13,24,16.80
2008,07,26,13,25,16.80
2008,07,26,13,26,16.60
2008,07,26,13,27,16.60
2008,07,26,13,28,16.60
2008,07,26,13,29,16.70
2008,07,26,13,30,16.80
2008,07,26,13,31,17.00
2008,07,26,13,32,17.00
2008,07,26,13,33,17.10
2008,07,26,13,34,17.20
2008,07,26,13,35,17.10
2008,07,26,13,36,17.00
2008,07,26,13,37,17.00
2008,07,26,13,38,17.00
2008,07,26,13,39,17.10
2008,07,26,13,40,17.20
2008,07,26,13,41,17.30
2008,07,26,13,42,17.30
2008,07,26,13,43,17.30
2008,07,26,13,44,17.30
2008,07,26,13,45,17.30
2008,07,26,13,46,17.20
2008,07,26,13,47,17.20
2008,07,26,13,48,17.20
2008,07,26,13,49,17.30
2008,07,26,13,50,17.30
2008,07,26,13,51,17.20
2008,07,26,13,52,17.00
2008,07,26,13,53,16.90
2008,07,26,13,54,16.90
2008,07,26,13,55,16.90
2008,07,26,13,56,16.80
2008,07,26,13,57,16.80
2008,07,26,13,58,16.80
2008,07,26,13,59,16.70
2008,07,26,14,00,16.70
2008,07,26,14,01,16.70
2008,07,26,14,02,16.90
2008,07,26,14,03,17.00
2008,07,26,14,04,17.10
2008,07,26,14,05,17.10
2008,07,26,14,06,17.20
2008,07,26,14,07,17.10
2008,07,26,14,08,17.10
2008,07,26,14,09,17.10
2008,07,26,14,10,17.00
2008,07,26,14,11,17.00
2008,07,26,14,12,16.90
2008,07,26,14,13,16.90
2008,07,26,14,14,17.00
2008,07,26,14,15,17.10
2008,07,26,14,16,17.20
2008,07,26,14,17,17.30
2008,07,26,14,18,17.30
2008,07,26,14,19,17.30
2008,07,26,14,20,17.30
2008,07,26,14,21,17.20
2008,07,26,14,22,17.20
2008,07,26,14,23,17.10
2008,07,26,14,24,17.00
2008,07,26,14,25,17.00
2008,07,26,14,26,17.00
2008,07,26,14,27,16.90
2008,07,26,14,28,16.90
2008,07,26,14,29,16.90
2008,07,26,14,30,16.90
2008,07,26,14,31,17.00
2008,07,26,14,32,17.10
2008,07,26,14,33,17.20
2008,07,26,14,34,17.20
2008,07,26,14,35,17.40
2008,07,26,14,36,17.40
2008,07,26,14,37,17.50
2008,07,26,14,38,17.60
2008,07,26,14,39,17.60
2008,07,26,14,40,17.80
2008,07,26,14,41,17.80
2008,07,26,14,42,17.70
2008,07,26,14,43,17.70
2008,07,26,14,44,17.80
2008,07,26,14,45,17.80
2008,07,26,14,46,17.90
2008,07,26,14,47,18.00
2008,07,26,14,48,18.10
2008,07,26,14,49,18.10
2008,07,26,14,50,18.00
2008,07,26,14,51,17.90
2008,07,26,14,52,17.80
2008,07,26,14,53,17.90
2008,07,26,14,54,17.90
2008,07,26,14,55,17.90
2008,07,26,14,56,17.80
2008,07,26,14,57,17.60
2008,07,26,14,58,17.60
2008,07,26,14,59,17.50
2008,07,26,15,00,17.50
2008,07,26,15,01,17.50
2008,07,26,15,02,17.30
2008,07,26,15,03,17.30
2008,07,26,15,04,17.30
2008,07,26,15,05,17.20
2008,07,26,15,06,17.20
2008,07,26,15,07,17.10
2008,07,26,15,08,17.10
2008,07,26,15,09,17.10
2008,07,26,15,10,17.10
2008,07,26,15,11,17.20
2008,07,26,15,12,17.30
2008,07,26,15,13,17.30
2008,07,26,15,14,17.30
2008,07,26,15,15,17.30
2008,07,26,15,16,17.30
2008,07,26,15,17,17.30
2008,07,26,15,18,17.30
2008,07,26,15,19,17.30
2008,07,26,15,20,17.40
2008,07,26,15,21,17.40
2008,07,26,15,22,17.30
2008,07,26,15,23,17.40
2008,07,26,15,24,17.40
2008,07,26,15,25,17.50
2008,07,26,15,26,17.70
2008,07,26,15,27,17.70
2008,07,26,15,28,17.80
2008,07,26,15,29,17.90
2008,07,26,15,30,17.90
2008,07,26,15,31,17.90
2008,07,26,15,32,17.80
2008,07,26,15,33,17.80
2008,07,26,15,34,17.70
2008,07,26,15,35,17.80
2008,07,26,15,36,17.80
2008,07,26,15,37,17.80
2008,07,26,15,38,17.80
2008,07,26,15,39,17.70
2008,07,26,15,40,17.70
2008,07,26,15,41,17.60
2008,07,26,15,42,17.80
2008,07,26,15,43,17.70
2008,07,26,15,44,17.50
2008,07,26,15,45,17.40
2008,07,26,15,46,17.30
2008,07,26,15,47,17.30
2008,07,26,15,48,17.40
2008,07,26,15,49,17.40
2008,07,26,15,50,17.30
2008,07,26,15,51,17.30
2008,07,26,15,52,17.30
2008,07,26,15,53,17.30
2008,07,26,15,54,17.40
2008,07,26,15,55,17.40
2008,07,26,15,56,17.40
2008,07,26,15,57,17.30
2008,07,26,15,58,17.20
2008,07,26,15,59,17.30
2008,07,26,16,00,17.20
2008,07,26,16,01,17.00
2008,07,26,16,02,16.90
2008,07,26,16,03,16.90
2008,07,26,16,04,16.80
2008,07,26,16,05,16.80
2008,07,26,16,06,16.70
2008,07,26,16,07,16.70
2008,07,26,16,08,16.70
2008,07,26,16,09,16.70
2008,07,26,16,10,16.70
2008,07,26,16,11,16.70
2008,07,26,16,12,16.70
2008,07,26,16,13,16.70
2008,07,26,16,14,16.70
2008,07,26,16,15,16.70
2008,07,26,16,16,16.70
2008,07,26,16,17,16.80
2008,07,26,16,18,16.80
2008,07,26,16,19,16.80
2008,07,26,16,20,16.80
2008,07,26,16,21,16.80
2008,07,26,16,22,16.80
2008,07,26,16,23,16.90
2008,07,26,16,24,16.90
2008,07,26,16,25,16.90
2008,07,26,16,26,17.00
2008,07,26,16,27,17.00
2008,07,26,16,28,17.10
2008,07,26,16,29,17.10
2008,07,26,16,30,17.00
2008,07,26,16,31,17.00
2008,07,26,16,32,17.00
2008,07,26,16,33,17.00
2008,07,26,16,34,17.00
2008,07,26,16,35,17.00
2008,07,26,16,36,17.00
2008,07,26,16,37,16.90
2008,07,26,16,38,16.80
2008,07,26,16,39,16.60
2008,07,26,16,40,16.40
2008,07,26,16,41,16.30
2008,07,26,16,42,16.20
2008,07,26,16,43,16.10
2008,07,26,16,44,16.10
2008,07,26,16,45,16.10
2008,07,26,16,46,16.00
2008,07,26,16,47,15.90
2008,07,26,16,48,15.80
2008,07,26,16,49,15.80
2008,07,26,16,50,15.70
2008,07,26,16,51,15.70
2008,07,26,16,52,15.70
2008,07,26,16,53,15.70
2008,07,26,16,54,15.80
2008,07,26,16,55,15.80
2008,07,26,16,56,15.90
2008,07,26,16,57,16.00
2008,07,26,16,58,16.10
2008,07,26,16,59,16.10
2008,07,26,17,00,16.20
2008,07,26,17,01,16.20
2008,07,26,17,02,16.30
2008,07,26,17,03,16.30
2008,07,26,17,04,16.30
2008,07,26,17,05,16.30
2008,07,26,17,06,16.30
2008,07,26,17,07,16.20
2008,07,26,17,08,16.10
2008,07,26,17,09,16.10
2008,07,26,17,10,16.10
2008,07,26,17,11,16.00
2008,07,26,17,12,15.90
2008,07,26,17,13,15.90
2008,07,26,17,14,15.90
2008,07,26,17,15,15.90
2008,07,26,17,16,15.90
2008,07,26,17,17,15.90
2008,07,26,17,18,15.80
2008,07,26,17,19,15.80